This is the latest recevied weather packets stored in our database for station/object WE0DX-1. If no packets are shown the sender has not sent any weather packets the latest 10 day(s).
| Time | Temp. | Humidity | Pressure | Rain* | Wind** | Luminosity | Snow |
|---|---|---|---|---|---|---|---|
| 1778010064 | 10.56° C | 86% | 1011.8 hPa | 0 mm | - | 164 W/m² | - |
| 1778009761 | 10° C | 87% | 1011.6 hPa | 0 mm | - | 167 W/m² | - |
| 1778009458 | 10° C | 88% | 1011.7 hPa | 0 mm | - | 143 W/m² | - |
| 1778009157 | 10° C | 85% | 1011.7 hPa | 0 mm | - | 133 W/m² | - |
| 1778008854 | 10° C | 86% | 1011.7 hPa | 0 mm | - | 126 W/m² | - |
| 1778008552 | 9.44° C | 85% | 1011.5 hPa | 0 mm | - | 115 W/m² | - |
| 1778008250 | 9.44° C | 85% | 1011.8 hPa | 0 mm | - | 111 W/m² | - |
| 1778007945 | 9.44° C | 86% | 1011.7 hPa | 0 mm | - | 120 W/m² | - |
| 1778007641 | 10° C | 86% | 1011.6 hPa | 0 mm | - | 120 W/m² | - |
| 1778007338 | 9.44° C | 83% | 1011.6 hPa | 0 mm | - | 127 W/m² | - |
| 1778007034 | 9.44° C | 87% | 1011.5 hPa | 0 mm | - | 182 W/m² | - |
| 1778006731 | 9.44° C | 88% | 1011.7 hPa | 0 mm | - | 193 W/m² | - |
| 1778006428 | 9.44° C | 88% | 1011.7 hPa | 0 mm | - | 202 W/m² | - |
| 1778006125 | 9.44° C | 90% | 1011.8 hPa | 0 mm | - | 197 W/m² | - |
| 1778005822 | 8.89° C | 90% | 1011.7 hPa | 0 mm | - | 142 W/m² | - |
| 1778005518 | 9.44° C | 92% | 1011.8 hPa | 0 mm | - | 143 W/m² | - |
| 1778005215 | 9.44° C | 91% | 1011.7 hPa | 0 mm | - | 126 W/m² | - |
| 1778004911 | 9.44° C | 92% | 1011.9 hPa | 0 mm | - | 153 W/m² | - |
| 1778004608 | 8.89° C | 91% | 1011.9 hPa | 0 mm | - | 117 W/m² | - |
| 1778004304 | 8.89° C | 92% | 1012.2 hPa | 0 mm | - | 92 W/m² | - |
| 1778004001 | 8.89° C | 91% | 1012.2 hPa | 0 mm | - | 128 W/m² | - |
| 1778003697 | 8.89° C | 93% | 1012.2 hPa | 0 mm | - | 112 W/m² | - |
| 1778003394 | 8.89° C | 93% | 1012.1 hPa | 0 mm | - | 104 W/m² | - |
| 1778003091 | 8.89° C | 94% | 1012 hPa | 0 mm | - | 70 W/m² | - |
| 1778002787 | 8.89° C | 94% | 1012.2 hPa | 0 mm | - | 58 W/m² | - |
* Rain latest hour (hover to see other rain measurements)
** Current wind speed in m/s (hover to see current wind gust speed)